Iliamna, AK

1:08 PM AKST on December 06, 2016 (GMT -0900)
Iliamna

Weather History for PAIL - March, 2013

Change the Weather History Date:

Tuesday, March 5, 2013

  Actual Average Record
Temperature  
Mean Temperature 36 °F -  
Max Temperature 37 °F 27 °F 41 °F (1943)
Min Temperature 34 °F 14 °F -23 °F (1956)
Degree Days  
Heating Degree Days 30    
Moisture  
Dew Point 32 °F    
Average Humidity 86    
Maximum Humidity 92    
Minimum Humidity 75    
Precipitation  
Precipitation 0.01 in - - ()
Snow  
Snow 0.00 in - - ()
Snow Depth 9.00 in    
Sea Level Pressure  
Sea Level Pressure 30.01 in    
Wind  
Wind Speed 16 mph (East)    
Max Wind Speed 20 mph    
Max Gust Speed 28 mph    
Visibility 10 miles    
Events Rain , Snow    
Averages and records for this station are not official NWS values.
T = Trace of Precipitation, MM = Missing Value Source: NWS Daily Summary

Daily Weather History Graph

Daily Weather History Graph

Search for Another Location

Airport or City:

Trip Planner

Search our weather history database for the weather conditions in past years. The results will help you decide how hot, cold, wet, or windy it might be!

Date:

Astronomy

Mar. 05, 2013 Rise Set
Actual Time 8:04 AM AKST 6:58 PM AKST
Civil Twilight 7:23 AM AKST 7:40 PM AKST
Nautical Twilight 6:35 AM AKST 8:28 PM AKST
Astronomical Twilight 5:46 AM AKST 9:17 PM AKST
Moon 4:38 AM AKST (3/5) 11:37 AM AKST (3/5)
Length of Visible Light 12h 16m
Length of Day
10h 54m
Last Quarter, 39% of the Moon is Illuminated
Mar 5
Last Quarter
Mar 11
New
Mar 19
First Quarter
Mar 27
Full
Apr 2
Last Quarter

Hourly Weather History & Observations

Time (AKST) Temp. Windchill Dew Point Humidity Pressure Visibility Wind Dir Wind Speed Gust Speed Precip Events Conditions
12:53 AM 36.0 °F 27.1 °F 32.0 °F 86% 30.20 in 10.0 mi East 13.8 mph 23.0 mph N/A   Overcast
1:40 AM 35.6 °F 25.9 °F 32.0 °F 87% 30.18 in 10.0 mi East 16.1 mph - N/A   Overcast
1:53 AM 36.0 °F 26.0 °F 32.0 °F 86% 30.19 in 10.0 mi East 17.3 mph 23.0 mph N/A   Overcast
3:16 AM 35.6 °F 24.8 °F 32.0 °F 87% 30.14 in 10.0 mi East 19.6 mph 26.5 mph N/A   Mostly Cloudy
3:53 AM 35.1 °F 24.5 °F 32.0 °F 89% 30.15 in 10.0 mi East 18.4 mph 26.5 mph N/A   Overcast
4:00 AM 35.6 °F 25.2 °F 32.0 °F 87% 30.14 in 10.0 mi East 18.4 mph 25.3 mph N/A   Overcast
4:53 AM 35.1 °F 24.8 °F 32.0 °F 89% 30.14 in 10.0 mi East 17.3 mph 26.5 mph 0.00 in Rain Light Rain
5:53 AM 34.0 °F 24.6 °F 32.0 °F 92% 30.13 in 10.0 mi East 13.8 mph 21.9 mph 0.00 in   Scattered Clouds
6:53 AM 34.0 °F 23.0 °F 32.0 °F 92% 30.10 in 10.0 mi East 18.4 mph 25.3 mph N/A   Clear
7:53 AM 34.0 °F 23.4 °F 32.0 °F 92% 30.09 in 10.0 mi East 17.3 mph 26.5 mph N/A   Clear
8:53 AM 34.0 °F 23.4 °F 32.0 °F 92% 30.07 in 10.0 mi East 17.3 mph 25.3 mph N/A   Scattered Clouds
9:53 AM 34.0 °F 22.7 °F 32.0 °F 92% 30.06 in 10.0 mi East 19.6 mph 27.6 mph N/A   Partly Cloudy
10:53 AM 35.1 °F 24.8 °F 32.0 °F 89% 30.04 in 10.0 mi East 17.3 mph 24.2 mph N/A   Mostly Cloudy
11:53 AM 36.0 °F 26.7 °F 30.9 °F 82% 30.03 in 10.0 mi East 15.0 mph - N/A   Overcast
12:53 PM 37.0 °F 27.7 °F 30.9 °F 79% 30.02 in 10.0 mi East 16.1 mph 25.3 mph N/A   Overcast
1:53 PM 36.0 °F 26.0 °F 30.9 °F 82% 29.99 in 10.0 mi East 17.3 mph 24.2 mph N/A   Overcast
2:53 PM 36.0 °F 26.0 °F 30.9 °F 82% 29.96 in 10.0 mi East 17.3 mph 24.2 mph N/A   Mostly Cloudy
3:53 PM 36.0 °F 27.1 °F 30.9 °F 82% 29.95 in 10.0 mi East 13.8 mph - N/A   Overcast
4:00 PM 35.6 °F 27.1 °F 30.2 °F 81% 29.93 in 10.0 mi East 12.7 mph - N/A   Overcast
4:08 PM 35.6 °F 25.9 °F 30.2 °F 81% 29.93 in 10.0 mi East 16.1 mph 21.9 mph N/A   Overcast
4:24 PM 37.4 °F 28.2 °F 30.2 °F 75% 29.92 in 10.0 mi East 16.1 mph - N/A   Overcast
4:53 PM 36.0 °F 26.3 °F 30.9 °F 82% 29.93 in 10.0 mi East 16.1 mph 24.2 mph N/A   Overcast
5:53 PM 35.1 °F 24.5 °F 30.9 °F 85% 29.92 in 10.0 mi East 18.4 mph 24.2 mph 0.00 in Snow Light Snow
6:53 PM 35.1 °F 24.8 °F 30.9 °F 85% 29.91 in 10.0 mi East 17.3 mph 24.2 mph 0.00 in   Overcast
7:53 PM 35.1 °F 24.5 °F 30.9 °F 85% 29.90 in 10.0 mi East 18.4 mph 24.2 mph N/A   Overcast
8:48 PM 35.6 °F 25.9 °F 32.0 °F 87% 29.88 in 10.0 mi East 16.1 mph 24.2 mph 0.00 in Rain Light Rain
8:53 PM 35.1 °F 25.2 °F 32.0 °F 89% 29.89 in 10.0 mi East 16.1 mph 24.2 mph 0.00 in Rain Light Rain
9:53 PM 35.1 °F 25.9 °F 32.0 °F 89% 29.88 in 10.0 mi East 13.8 mph - 0.00 in Rain Light Rain
10:53 PM 35.1 °F 25.5 °F 32.0 °F 89% 29.87 in 8.0 mi East 15.0 mph - 0.01 in Snow Light Snow
11:53 PM 35.1 °F 24.8 °F 32.0 °F 89% 29.86 in 10.0 mi East 17.3 mph 25.3 mph 0.00 in   Overcast